Flag for U.S.A. Weather past 2 weeks in Fairbanks, Alaska, U.S.A.

Now
43 °F

Broken clouds.


Feels Like: 43 °F
Forecast: 24 / 40 °F
Wind: No wind

Location: Wainwright U. S. Army Airfield

Current Time: Mar 27, 2015 at 1:29:17 PM

Latest Report: Mar 27, 2015 at 12:55 PM


Visibility: 25 mi

Pressure: 29.54 "Hg

Humidity: 53%

Dew point: 27 °F

Location of FairbanksLocation

Historic Weather in Fairbanks — Graph

°F

Fairbanks temperature yesterday

Maximum temperature yesterday: 48 °F (at 4:55 PM)
Minimum temperature yesterday: 19 °F (at 12:56 AM)
Average temperature yesterday: 32 °F

Past Weeks' High & Low Weather Summary

 TemperatureHumidityPressure
High48 °F (Mar 20, 3:55 PM)94% (Mar 15, 1:56 AM)30.11 "Hg (Mar 15, 1:56 AM)
Low-35 °F (Mar 15, 7:56 AM)24% (Mar 16, 8:55 PM)29.32 "Hg (Mar 26, 4:55 PM)
Average16 °F65%29.79 "Hg
* Reported Mar 12 11:55 AM — Mar 27 11:55 AM, Fairbanks, Weather by CustomWeather, © 2015

Note: Actual official high and low records may vary slightly from our data, if they occured in-between our weather recording intervals... More about our weather records

Advertising

Fairbanks weather history for previous 24 hours

 ConditionsComfort  
Time TempWeatherWind HumidityBarometerVisibility
11:55 AM
Fri, Mar 27
39 °FBroken clouds.3 mph61%29.53 "Hg25 mi
10:55 AM36 °FBroken clouds.3 mph70%29.52 "Hg25 mi
9:55 AM27 °FBroken clouds.3 mph80%29.49 "Hg25 mi
8:55 AM25 °FBroken clouds.1 mph86%29.49 "Hg25 mi
7:55 AM27 °FPartly cloudy.3 mph80%29.47 "Hg10 mi
6:55 AM19 °FPartly cloudy.No wind93%29.46 "Hg7 mi
5:56 AM21 °FPassing clouds.No wind88%29.44 "Hg10 mi
4:56 AM24 °FPassing clouds.5 mph84%29.43 "Hg10 mi
3:56 AM25 °FPassing clouds.3 mph81%29.42 "Hg10 mi
2:56 AM29 °FClear.5 mph79%29.41 "Hg10 mi
1:56 AM27 °FPassing clouds.No wind78%29.40 "Hg10 mi
12:56 AM31 °FPassing clouds.No wind69%29.39 "Hg10 mi
11:56 PM
Thu, Mar 26
31 °FOvercast.No wind73%29.37 "Hg10 mi
10:56 PM33 °FPassing clouds.3 mph66%29.36 "Hg10 mi
9:56 PM39 °FOvercast.No wind55%29.36 "Hg10 mi
8:55 PM41 °FPartly sunny.6 mph53%29.34 "Hg25 mi
7:55 PM45 °FPartly sunny.5 mph42%29.33 "Hg25 mi
6:55 PM48 °FBroken clouds.9 mph34%29.33 "Hg25 mi
5:55 PM48 °FBroken clouds.5 mph29%29.32 "HgN/A
4:55 PM48 °FScattered clouds.5 mph29%29.32 "Hg25 mi
3:55 PM45 °FScattered clouds.No wind39%29.34 "Hg25 mi
2:55 PM46 °FScattered clouds.No wind32%29.34 "Hg25 mi
1:55 PM39 °FScattered clouds.1 mph39%29.36 "Hg85 mi
Weather by CustomWeather, © 2015

See weather overviewHow to use our weather pages